GFSMW_700_rhum_003.txt.gz
RH
35 34 36 40 48 60 61 49 46 54 53 52 42 43 40 44 44 45 51 56 42 40 43 35 47 46 32 20 12 7 5 5 8 12 17 19 20 20 19 18 19 18 17
31 37 37 35 44 66 64 50 57 63 58 48 47 46 46 43 52 53 58 50 42 42 36 48 44 31 21 15 11 7 4 6 11 17 19 20 21 22 22 22 21 20 18
26 31 37 40 37 64 61 48 59 58 51 54 51 49 49 49 50 58 51 43 44 40 49 44 35 32 37 34 24 13 8 9 16 20 23 24 24 24 22 23 21 20 18
28 28 33 39 42 61 59 57 51 49 50 56 51 50 50 50 59 47 46 45 43 50 45 42 52 53 51 47 37 20 9 9 16 25 29 30 28 26 22 20 20 19 17
27 28 32 38 48 55 57 51 52 51 54 49 49 46 62 59 44 40 43 45 51 48 49 52 51 51 50 46 42 29 10 6 14 25 30 30 28 27 25 21 19 17 14
29 27 31 47 42 48 54 50 52 53 50 48 42 43 57 43 37 40 46 52 50 50 51 51 55 57 56 49 43 37 12 4 12 23 29 29 28 27 24 21 17 14 11
42 35 38 44 50 48 52 50 52 53 47 48 48 55 40 41 42 47 53 51 50 50 50 55 60 61 60 57 50 46 14 6 13 23 26 27 26 22 18 16 14 11 8
65 59 40 57 62 59 52 50 53 53 48 50 48 42 38 41 44 52 53 52 50 51 56 62 63 62 61 61 55 49 13 10 18 24 26 25 21 18 17 15 11 8 9
44 56 51 52 64 63 54 58 58 53 48 50 36 35 40 42 49 53 53 51 53 58 63 66 64 62 63 63 58 32 14 16 22 25 25 21 19 19 17 14 12 11 11
34 38 56 52 60 63 59 63 60 52 47 42 36 38 41 49 54 54 52 53 58 63 68 69 67 65 67 63 48 20 17 21 24 25 20 20 20 19 16 15 15 15 15
26 31 46 54 54 59 61 64 62 52 45 39 39 40 46 52 53 51 52 58 64 69 72 73 72 70 69 61 28 20 21 23 24 20 20 22 20 19 17 17 19 19 18
24 30 41 50 50 58 62 66 62 51 43 42 40 46 52 52 51 53 58 64 70 75 77 79 78 73 69 37 24 21 22 22 19 21 22 23 21 20 20 22 22 21 19
32 26 34 48 59 64 65 66 58 50 44 41 43 51 53 53 54 59 66 71 76 80 82 82 77 73 46 30 22 22 21 19 22 22 22 21 20 21 24 24 23 21 17
36 21 32 53 58 65 64 60 56 50 44 42 48 54 57 57 60 65 71 76 81 84 83 81 77 62 33 23 21 20 20 22 23 23 22 22 22 25 26 25 22 16 9
38 30 42 47 51 60 63 60 56 50 44 45 52 57 60 62 65 71 76 80 83 83 82 80 69 35 22 21 20 20 20 20 22 22 23 22 25 27 26 21 13 7 10
57 55 56 58 63 66 62 58 54 48 47 51 57 60 62 64 69 74 77 78 81 83 81 57 34 21 22 20 21 20 18 19 20 21 22 24 26 25 20 11 6 18 27
62 62 64 66 65 64 62 60 56 53 54 56 59 61 65 68 71 75 77 83 81 75 53 29 21 22 21 21 18 17 17 20 20 22 22 24 22 17 8 4 14 20 28
67 66 68 70 72 72 70 65 60 60 62 63 66 70 71 73 74 81 79 78 60 43 22 21 23 22 20 16 15 16 18 20 21 21 22 19 13 5 4 11 20 22 32
66 70 76 77 73 74 78 73 67 68 69 72 73 74 75 81 80 76 70 48 29 20 24 24 22 18 16 14 16 17 19 18 19 18 15 8 3 5 18 23 22 29 43
69 74 76 77 77 77 80 81 78 77 76 78 84 85 80 75 72 55 38 22 23 25 24 21 16 13 13 15 18 19 16 15 13 8 3 4 8 18 25 25 34 49 70
68 77 83 84 83 84 85 88 91 90 87 82 76 74 71 60 45 26 22 27 26 22 18 15 13 14 16 18 17 15 13 8 2 2 5 10 17 24 27 38 64 77 70
59 67 80 85 87 88 91 89 84 78 76 74 70 63 50 29 23 27 28 24 20 16 14 12 14 19 19 16 14 10 2 1 3 7 10 16 23 28 38 73 81 77 77
64 74 84 85 85 85 84 82 79 75 69 65 51 29 24 28 29 25 21 17 16 12 11 13 16 16 14 12 7 0 1 6 8 10 16 24 27 38 73 86 83 83 86
66 70 77 84 84 82 79 73 69 67 50 29 25 30 29 25 22 18 17 15 12 12 14 15 14 12 10 4 0 4 8 9 10 13 22 27 37 67 87 84 87 93 90
66 75 79 77 74 73 74 70 49 32 26 30 29 25 22 19 17 16 13 12 13 13 14 13 11 10 4 0 6 8 8 10 13 19 26 34 54 84 86 92 97 92 91
68 70 73 75 77 69 51 33 28 31 29 25 22 19 17 17 14 13 13 14 15 18 16 14 12 2 0 6 9 8 9 13 17 25 31 43 82 84 88 89 90 94 91

GFSMW_700_rhum_006.txt.gz
RH
26 25 32 39 46 48 49 54 49 47 46 47 51 57 55 49 41 40 46 46 44 45 46 46 40 44 38 26 23 23 16 9 6 6 11 16 21 22 22 22 23 23 22
28 26 29 31 37 44 49 52 54 46 43 53 64 63 64 52 46 40 45 50 58 56 45 43 44 40 33 44 47 43 37 22 10 8 14 21 24 26 26 27 25 24 23
30 28 28 31 31 35 38 46 60 47 48 59 68 70 60 55 49 44 44 79 96 54 47 43 44 40 48 46 44 41 39 30 13 7 11 19 24 28 28 28 26 24 23
24 28 28 28 33 34 33 39 62 55 50 59 66 63 60 55 60 53 62 85 60 56 43 48 45 49 48 50 50 45 40 36 18 6 7 16 23 26 25 23 22 22 21
25 25 29 28 30 40 37 37 60 56 51 62 56 61 63 55 57 56 62 58 59 47 51 47 51 50 53 54 54 53 52 49 40 13 8 12 18 23 25 23 23 21 19
23 23 26 28 30 36 39 43 60 59 55 52 56 60 57 57 50 52 55 49 48 51 49 51 52 55 58 57 56 57 57 56 45 27 15 15 22 27 28 25 22 20 17
33 29 37 32 29 30 36 47 58 57 52 52 54 53 53 57 92 59 49 47 51 52 52 52 56 61 62 59 57 58 60 58 43 26 16 22 28 28 25 21 19 17 12
36 38 62 57 32 35 39 50 55 53 52 53 51 51 51 77 64 49 47 51 53 54 54 56 62 65 64 61 59 61 63 56 40 21 21 26 27 23 19 18 15 11 10
29 49 67 60 36 49 50 49 52 50 52 53 48 52 60 97 50 44 45 51 54 56 57 62 66 68 68 65 64 65 65 53 31 21 25 26 21 19 18 14 12 11 13
49 36 56 58 46 55 63 58 57 51 52 53 51 54 98 63 45 45 50 55 58 58 61 66 70 73 72 71 69 69 65 44 23 24 25 20 19 18 13 12 12 12 12
53 32 47 56 53 65 66 66 57 53 58 52 51 80 83 43 44 50 55 56 57 61 64 70 75 78 77 74 72 74 62 28 23 25 20 19 16 13 13 13 13 12 11
58 36 39 54 55 56 66 64 62 63 60 52 66 58 96 43 49 55 58 59 60 64 70 75 80 82 80 78 75 76 35 22 24 20 19 15 14 14 14 14 13 13 16
61 39 34 51 58 52 64 61 65 66 60 51 50 57 42 48 55 58 59 61 65 70 75 80 83 83 81 80 73 42 22 24 21 19 14 14 14 15 15 13 15 18 16
66 39 30 44 50 58 57 59 68 67 60 55 50 45 46 55 58 60 61 65 72 77 81 84 84 84 84 67 50 22 24 22 17 14 14 15 15 14 13 16 17 15 10
64 42 23 38 42 59 62 69 74 70 67 53 50 46 52 57 59 62 64 70 77 83 87 85 86 84 59 44 22 25 22 16 13 14 15 15 13 14 15 14 11 5 3
65 44 26 38 57 69 71 71 73 74 71 58 49 47 54 61 63 65 70 76 82 89 89 88 81 51 34 23 25 21 14 13 13 14 14 12 12 12 8 3 3 4 11
58 34 25 51 65 75 78 76 80 84 83 59 52 56 62 63 67 71 75 80 88 93 87 71 46 25 25 25 19 14 12 12 14 12 11 11 7 2 2 2 5 13 22
68 59 59 64 69 77 87 91 84 71 64 56 57 61 65 68 73 77 82 92 93 82 54 37 23 27 24 17 13 11 13 13 10 10 8 2 1 3 5 7 14 21 26
74 77 80 78 78 76 74 75 65 60 60 62 64 67 72 77 80 86 95 89 70 43 26 26 27 22 15 12 11 13 11 9 9 3 1 4 6 6 9 15 21 23 42
79 77 74 73 75 74 73 70 70 69 68 70 74 77 80 88 95 89 77 51 36 24 28 25 19 14 12 12 12 10 8 8 1 2 6 7 7 10 17 23 26 39 72
76 80 81 82 83 85 85 82 78 76 77 78 86 95 94 87 78 62 45 24 27 28 22 17 14 12 12 12 10 10 6 1 3 7 8 9 10 17 24 29 48 74 72
78 78 80 80 79 84 86 87 89 95 99 97 91 86 77 61 47 27 27 29 24 20 16 13 13 13 13 10 10 5 1 4 7 8 8 10 14 22 28 48 76 74 72
80 86 89 88 90 95 100 100 100 97 92 84 73 58 46 27 28 29 25 21 17 15 13 13 12 12 11 11 5 1 4 8 8 8 10 13 21 27 44 75 74 75 81
81 86 91 96 98 99 100 96 93 82 69 58 44 27 28 30 26 22 18 17 14 14 13 13 12 11 11 6 2 3 7 9 9 10 12 21 27 41 76 78 81 85 84
87 93 100 100 99 94 86 75 67 60 43 29 29 30 26 22 19 17 16 14 14 13 13 12 12 12 8 3 3 7 11 11 11 12 19 26 36 72 76 83 87 87 85
83 85 91 89 76 73 70 60 44 30 30 30 26 22 19 18 17 16 15 14 14 13 13 14 13 10 4 3 7 11 12 12 15 17 25 32 66 76 80 80 83 88 87

GFSMW_700_rhum_009.txt.gz
RH
32 52 27 33 63 64 44 49 49 45 50 49 46 44 45 53 63 61 58 47 43 43 44 44 48 41 37 41 32 36 34 33 34 30 16 9 11 16 20 24 25 26 27
21 31 35 24 28 36 40 42 51 49 50 47 44 46 48 61 61 61 57 49 46 47 45 57 51 42 44 37 42 39 38 34 32 31 20 8 9 15 22 25 28 28 28
19 24 27 31 23 30 34 49 52 55 50 44 42 47 58 64 60 60 59 52 49 49 62 80 55 46 41 45 46 48 48 46 45 42 34 17 9 9 13 18 22 23 24
25 24 24 32 33 26 33 38 42 52 52 42 38 45 54 62 65 66 66 62 57 84 99 75 49 48 48 47 52 53 53 53 53 51 50 43 32 20 17 16 19 22 24
37 30 26 24 27 37 38 31 41 41 46 50 45 51 64 68 66 63 61 59 59 99 99 70 52 48 50 52 56 56 54 54 55 56 55 50 37 19 17 19 23 24 22
41 35 22 24 25 31 48 31 43 39 43 56 56 58 66 65 60 61 59 60 65 99 86 56 54 53 51 57 60 57 54 55 57 60 60 55 33 20 24 25 24 22 20
42 51 50 24 24 27 39 34 35 44 42 51 60 63 64 57 60 66 68 53 81 73 66 54 54 55 55 61 62 58 57 57 59 63 64 53 25 23 26 24 21 19 16
40 63 64 40 34 33 35 32 33 44 47 56 64 59 54 58 63 66 74 98 59 60 54 56 58 56 60 65 63 61 61 62 63 67 65 37 23 26 24 21 18 13 11
65 78 77 39 42 56 43 35 35 41 48 61 63 56 54 60 60 62 78 66 51 52 56 59 60 60 63 67 67 66 65 67 68 70 55 24 25 24 20 16 12 12 14
67 78 64 42 53 64 49 36 40 47 55 62 60 54 58 59 62 63 66 51 50 55 58 62 62 63 67 70 71 72 72 72 70 69 28 25 24 20 15 12 12 13 13
65 46 47 55 52 56 50 40 54 53 57 60 55 55 58 61 71 92 55 49 52 58 61 62 63 65 70 74 77 78 76 75 72 40 24 24 20 14 12 13 13 11 7
70 54 56 60 35 51 52 56 62 59 57 61 56 57 64 60 99 91 49 50 57 61 63 63 63 68 74 79 81 81 81 70 48 24 25 20 13 12 12 12 9 5 6
92 52 59 64 36 44 55 61 69 68 67 59 57 60 59 88 99 69 49 53 59 63 64 64 70 76 84 85 84 85 63 47 24 25 19 12 12 13 11 7 6 6 4
98 56 60 64 37 41 59 65 68 70 64 60 60 62 90 98 81 54 53 58 64 64 65 70 76 85 88 87 86 62 40 24 25 18 12 12 13 10 6 6 4 2 2
96 53 61 57 36 40 58 61 64 69 71 66 63 97 99 97 76 62 61 62 64 66 70 76 83 88 91 86 57 34 25 25 16 12 12 12 9 6 5 2 2 3 4
77 80 74 44 32 44 59 58 71 75 76 86 93 91 99 76 63 62 63 64 67 73 76 82 89 95 86 50 28 27 24 15 12 12 12 8 7 3 2 5 6 6 7
98 82 62 32 33 42 63 68 76 96 96 99 100 93 66 62 63 80 93 73 75 78 84 92 96 86 47 26 28 21 14 12 13 11 7 6 2 3 6 6 7 8 11
84 71 41 31 50 71 84 78 88 99 100 100 98 93 72 70 90 90 78 79 80 87 95 97 69 38 27 27 18 14 12 13 10 7 6 2 5 7 7 7 7 9 17
85 64 52 64 85 97 99 99 100 98 99 100 98 85 89 86 82 80 82 84 93 97 93 52 29 28 24 16 13 13 12 9 8 6 2 5 7 7 7 8 10 16 24
77 70 82 100 99 98 96 100 100 100 98 96 86 82 80 79 83 86 94 98 95 65 43 28 28 19 15 14 13 11 9 8 6 2 5 7 8 7 8 12 19 23 48
100 100 99 99 99 99 97 91 80 71 76 82 77 78 83 88 99 99 93 73 54 29 29 23 17 15 14 13 11 9 9 6 3 4 7 8 8 8 13 21 29 53 66
94 97 90 87 85 84 82 80 81 81 81 83 84 94 100 98 88 76 56 30 29 25 19 16 15 15 13 11 9 9 7 4 4 6 8 9 9 12 21 29 56 69 70
91 91 88 84 85 89 92 91 88 88 94 100 98 93 86 71 54 30 30 27 20 17 16 15 14 13 11 10 10 8 5 4 5 9 10 11 12 18 27 54 68 73 75
94 87 88 91 87 89 93 94 99 98 93 90 80 63 50 30 30 28 21 18 17 16 16 14 13 11 10 11 9 6 5 6 8 11 12 13 17 26 52 70 75 79 83
88 93 93 95 99 99 97 96 94 85 71 63 47 31 30 27 22 18 18 17 17 16 15 13 11 10 11 8 5 5 6 9 12 12 14 15 25 50 69 73 78 84 84
94 96 98 99 99 97 90 77 69 62 46 30 30 27 22 19 19 18 18 17 15 15 13 11 10 11 7 5 5 7 9 12 14 16 15 24 44 69 73 76 80 86 85

GFSMW_700_rhum_012.txt.gz
RH
23 30 43 30 24 37 64 71 69 69 54 48 47 51 53 53 55 54 54 59 63 62 52 44 41 46 48 45 37 37 36 35 36 35 33 30 24 18 12 11 13 17 22
15 16 29 54 31 30 55 69 74 62 57 52 51 53 52 50 47 44 52 54 62 60 54 48 44 48 53 44 40 39 39 42 44 45 46 46 40 36 26 16 13 12 12
12 17 18 25 38 32 36 60 70 69 54 56 55 54 53 50 46 44 56 60 64 62 56 53 49 56 61 44 43 43 46 49 50 49 49 50 50 49 42 36 26 20 19
16 10 16 18 36 38 35 49 53 60 58 53 48 53 53 49 47 49 58 67 70 67 60 60 55 99 63 48 46 47 53 53 51 50 50 50 53 55 52 40 25 20 22
32 28 27 27 35 40 59 42 56 73 54 39 52 58 54 49 50 62 71 74 71 64 60 63 96 100 59 50 49 52 57 56 53 52 51 51 53 55 55 45 26 22 23
39 40 42 41 33 31 44 51 60 69 52 50 43 52 56 46 54 62 73 71 68 64 68 74 99 100 57 52 51 56 60 58 55 54 55 56 56 59 54 33 23 22 21
40 40 44 55 49 37 28 47 66 67 56 46 47 43 49 45 62 66 73 72 68 70 77 80 99 89 56 54 53 59 63 61 59 58 59 59 60 62 40 24 24 22 19
38 41 39 39 46 48 49 35 62 66 60 47 49 52 48 57 63 68 73 73 76 82 67 100 98 74 57 57 56 62 64 63 63 63 63 63 65 56 25 25 23 18 12
44 44 42 43 33 47 59 58 60 59 54 44 50 59 53 58 66 67 71 74 75 81 99 86 89 58 59 60 60 64 66 66 66 66 67 66 65 30 25 23 17 12 13
42 43 50 57 49 43 47 67 74 59 53 40 49 59 52 61 63 67 72 70 96 88 81 71 59 59 62 62 62 65 68 70 70 70 70 68 40 26 24 16 12 13 14
45 46 45 36 37 52 55 53 61 65 62 41 47 55 56 66 64 69 68 95 86 94 61 58 60 62 65 64 65 71 72 72 74 75 68 48 26 24 15 12 14 13 9
55 58 60 46 53 50 54 49 65 69 50 40 47 60 71 70 63 62 86 91 95 60 59 62 63 66 65 65 69 74 77 76 77 70 52 26 24 14 13 14 12 7 5
59 74 50 48 60 60 57 48 89 84 100 46 59 70 74 66 61 79 100 98 81 58 64 66 67 69 66 70 74 80 80 82 72 51 27 24 14 13 14 11 6 5 3
71 76 43 54 62 57 62 92 99 98 58 66 71 77 71 66 65 96 89 100 82 68 70 67 70 69 71 76 81 83 87 74 47 27 22 14 14 14 10 6 5 3 5
76 69 58 69 74 96 88 96 98 67 72 79 78 75 69 92 100 96 100 99 73 79 71 69 71 76 78 83 88 93 76 44 28 19 14 15 13 9 7 4 4 5 5
77 89 71 96 98 99 67 54 87 94 86 81 75 68 94 91 98 100 100 89 93 69 68 80 92 80 87 96 98 72 35 28 17 14 15 12 8 7 4 4 5 6 6
92 99 77 98 100 98 69 79 99 94 85 76 72 100 97 100 100 100 100 98 68 75 92 94 86 87 98 98 59 29 25 16 15 15 12 8 7 5 4 5 6 7 8
92 98 91 97 92 59 65 88 94 87 87 89 100 100 100 100 99 96 72 69 88 96 87 88 95 98 91 43 28 20 16 16 14 11 9 7 6 5 5 6 7 7 9
100 95 84 72 60 53 81 98 100 100 100 100 100 100 100 91 93 92 96 97 85 87 89 98 97 67 31 26 17 16 17 13 10 9 8 6 5 5 7 9 8 8 17
89 86 93 98 100 100 100 94 100 100 100 100 99 99 95 90 97 94 84 82 88 98 97 75 37 29 20 17 18 16 13 10 9 8 6 5 5 8 10 10 9 14 30
100 100 100 100 100 100 100 99 98 99 98 95 97 94 90 88 84 86 96 99 92 74 44 29 24 18 18 18 15 13 10 9 8 6 4 5 8 10 10 11 18 32 59
100 100 98 99 100 100 99 94 82 78 78 82 89 89 86 93 98 98 86 72 47 30 27 19 18 18 17 15 13 10 9 7 4 4 6 8 10 11 12 19 35 63 66
95 88 92 93 91 91 90 86 83 84 86 89 97 100 100 92 80 62 43 30 28 20 18 19 18 16 15 12 10 9 6 4 5 7 8 10 12 13 19 36 66 66 66
96 95 98 100 96 94 93 92 97 99 100 100 95 86 70 59 39 30 28 20 19 20 19 17 16 14 11 10 8 6 4 5 7 8 10 13 13 16 33 64 69 69 69
100 99 99 100 100 100 100 100 100 98 90 79 68 56 36 30 27 20 19 21 20 19 18 17 14 10 10 7 6 5 5 6 7 8 11 15 16 33 63 66 70 72 74
100 99 100 99 100 99 98 92 80 73 67 54 33 30 26 20 20 22 21 20 19 19 16 13 11 9 7 6 5 6 7 7 8 10 15 16 28 63 64 65 70 78 81

GFSMW_700_rhum_015.txt.gz
RH
17 30 34 35 52 36 58 72 74 74 73 53 48 52 55 55 56 57 54 54 58 59 63 64 62 55 48 46 50 49 40 38 38 39 41 42 43 42 42 42 39 34 27
14 16 29 45 45 53 46 59 73 74 73 71 54 55 58 59 58 59 55 52 50 49 54 65 63 56 49 48 57 50 42 41 43 45 47 46 46 46 45 46 48 45 39
15 14 15 18 33 36 40 46 61 73 72 74 72 62 61 61 61 58 54 49 46 49 62 70 67 58 57 52 66 49 44 44 47 49 49 48 47 47 49 49 50 49 43
16 14 11 8 15 20 28 42 59 66 68 73 77 68 58 57 52 56 58 53 51 59 69 74 69 71 69 66 87 50 47 46 50 52 52 50 50 51 51 51 52 50 42
20 23 22 15 12 15 22 35 50 64 64 71 73 67 64 60 62 61 61 57 59 66 75 78 73 88 79 84 91 52 49 49 54 55 53 51 51 53 53 52 55 50 30
28 35 29 20 22 27 30 43 49 57 74 69 77 73 51 54 63 63 63 56 58 72 80 77 75 89 92 98 96 57 52 53 58 59 56 55 56 56 57 54 53 49 26
26 25 35 30 24 19 34 43 56 60 54 73 78 73 53 56 68 71 65 56 64 70 78 78 89 100 96 88 95 58 55 54 60 61 60 60 61 60 60 58 56 34 22
34 34 39 41 41 40 43 46 42 54 64 61 71 77 56 68 70 74 64 57 69 78 83 89 98 81 94 96 89 60 58 57 62 63 64 65 65 64 63 62 41 24 22
33 37 39 37 40 40 37 40 42 40 56 74 77 81 67 70 59 68 57 68 71 80 86 100 99 77 100 98 93 62 63 61 63 67 69 69 68 70 65 51 26 23 15
40 40 38 41 38 35 35 41 49 38 43 61 77 80 78 76 64 70 71 69 74 81 86 100 93 99 99 100 70 65 65 65 68 69 71 71 73 68 59 28 22 14 15
46 44 43 42 41 43 47 31 54 51 47 54 70 80 81 74 62 69 68 68 80 80 99 90 100 100 96 95 65 69 69 68 72 72 73 75 74 62 30 22 15 16 16
56 54 52 47 38 35 30 25 44 54 55 59 77 84 88 66 63 67 63 73 77 92 94 98 100 98 100 76 68 74 69 73 76 76 78 81 63 31 21 15 16 15 11
56 54 59 56 50 40 40 48 50 59 45 60 74 80 72 58 64 66 74 75 88 86 100 100 97 100 98 72 73 73 73 78 78 79 86 65 31 20 15 16 14 9 7
68 68 63 54 54 54 49 56 61 59 51 61 85 70 78 59 66 75 78 85 88 99 97 100 100 100 94 73 86 80 87 82 83 92 70 30 19 16 16 13 9 7 6
84 80 76 80 70 49 58 62 86 72 74 84 83 98 67 73 80 83 85 95 98 98 98 100 99 98 73 80 93 97 86 87 97 67 28 17 16 15 11 9 8 7 5
91 83 77 76 68 51 76 99 96 77 98 100 90 71 82 88 94 97 99 100 94 99 100 100 98 72 74 94 98 90 90 98 52 26 16 16 13 10 8 7 6 5 4
84 83 83 91 78 96 99 99 94 99 100 99 88 86 93 96 100 90 100 100 100 100 99 84 71 84 98 96 92 96 95 30 21 17 16 13 10 8 7 5 4 4 6
99 98 100 99 98 99 99 99 100 100 100 99 98 95 99 100 99 100 100 99 99 98 96 94 95 96 88 95 99 61 28 18 17 15 12 10 8 6 4 4 4 6 8
100 100 100 100 99 99 99 99 100 100 100 100 100 100 100 100 99 98 100 98 95 98 99 91 86 92 99 80 30 21 17 18 15 12 9 8 5 4 4 5 7 9 10
87 77 72 85 95 93 92 100 100 100 100 100 99 99 99 99 99 92 91 100 99 92 96 100 99 80 32 26 18 19 16 14 11 9 7 4 4 4 6 7 9 9 15
98 99 99 98 99 99 100 99 99 99 98 98 98 100 99 96 96 93 94 95 99 100 98 68 35 27 19 18 18 16 15 11 8 6 4 4 5 6 8 10 11 15 40
99 98 95 98 98 97 97 96 98 97 100 96 97 94 91 95 94 97 100 99 87 55 33 28 20 19 19 18 17 13 10 8 6 4 4 5 6 7 10 12 17 43 53
96 95 96 99 96 96 94 83 83 85 85 83 85 97 99 100 100 90 64 41 30 27 19 19 19 19 18 16 12 10 7 6 4 4 5 6 7 10 13 16 43 57 54
97 95 98 99 99 96 95 94 97 99 99 99 98 95 84 62 46 31 30 25 20 20 21 20 20 18 14 11 9 7 6 5 4 5 7 7 9 13 15 42 59 58 59
98 96 94 96 97 98 98 98 99 99 96 84 64 48 34 30 29 22 20 21 22 21 21 20 17 13 11 9 7 6 5 4 5 7 8 10 14 16 38 62 64 64 67
98 90 99 100 100 99 100 100 92 72 60 43 31 30 26 21 21 23 23 22 22 22 19 15 13 11 8 7 7 6 5 6 8 10 10 12 16 30 63 63 64 70 70

GFSMW_700_rhum_018.txt.gz
RH
20 24 25 25 25 30 40 55 71 70 61 55 63 55 52 49 55 49 48 53 58 56 61 61 63 67 66 62 56 53 56 56 44 40 41 43 45 44 44 44 44 43 43
16 16 21 28 33 25 23 22 30 63 71 63 68 82 66 55 60 60 60 60 60 59 55 55 61 67 68 65 58 57 64 56 45 43 44 46 47 48 46 46 46 46 46
13 12 15 17 19 23 31 33 32 68 75 73 72 72 76 74 58 62 61 60 57 56 52 54 64 72 72 68 64 64 74 53 48 48 49 50 50 48 47 46 48 49 48
13 13 15 16 18 22 34 34 40 40 68 73 74 73 73 70 66 60 58 64 64 61 56 54 62 78 78 71 74 73 90 56 51 52 53 54 54 52 50 51 53 54 53
20 18 16 14 12 14 19 39 52 50 54 51 69 73 72 86 82 76 65 69 70 66 58 56 68 78 82 80 99 84 97 66 55 54 57 58 57 54 54 55 57 56 57
27 23 22 21 20 18 17 17 28 51 56 64 61 66 74 73 82 76 72 68 72 65 62 60 69 82 91 89 99 97 93 86 58 56 57 61 60 58 58 59 59 58 58
29 30 30 30 28 24 20 19 28 33 59 62 67 72 73 76 76 84 77 73 70 66 62 64 71 84 93 88 98 97 93 94 65 59 58 63 64 63 64 63 62 59 57
33 32 33 33 35 39 38 34 35 39 46 58 60 69 76 84 82 88 81 72 71 73 65 75 84 86 93 98 100 87 99 98 68 62 61 64 65 68 66 64 64 63 60
38 36 36 36 30 32 38 41 42 44 43 40 49 61 67 71 74 82 84 72 77 76 65 78 91 94 96 98 98 77 100 96 72 65 66 65 70 70 68 68 68 67 50
42 45 45 41 38 34 34 40 40 40 40 37 32 50 56 66 66 79 77 76 79 75 68 83 90 99 100 96 95 95 100 90 69 71 70 68 70 74 73 73 73 53 25
56 50 48 48 48 44 41 40 41 36 31 28 28 30 51 56 77 94 88 78 70 72 77 82 92 97 95 100 99 100 98 91 69 74 72 73 80 78 76 80 58 26 17
76 68 72 56 48 45 43 42 46 38 31 26 30 35 44 61 68 88 91 88 75 77 80 80 98 90 100 98 98 100 97 80 70 75 74 85 87 81 84 63 27 17 18
80 80 84 77 59 54 49 42 45 39 36 28 39 50 52 67 82 78 97 80 69 79 77 86 97 100 100 100 100 100 99 73 77 83 84 94 87 89 73 26 17 18 15
71 86 80 78 69 68 63 60 56 39 41 50 56 61 68 71 93 90 91 68 71 75 86 97 100 100 99 99 100 100 94 76 84 90 98 92 94 79 25 17 18 15 11
97 88 93 83 77 76 77 74 55 47 58 55 70 69 73 82 100 99 74 63 80 99 100 97 100 100 100 100 100 94 76 78 95 98 97 99 65 22 18 18 14 10 8
100 99 98 91 88 83 80 79 83 66 66 72 77 82 90 100 96 85 59 79 100 100 99 100 100 100 100 98 96 86 79 98 99 98 99 37 18 18 16 13 9 6 4
100 100 96 92 90 84 79 78 89 97 50 70 75 92 100 97 100 81 98 100 100 100 100 100 100 100 98 96 92 98 99 98 100 81 25 17 18 16 12 8 5 3 4
100 100 100 99 100 98 97 99 99 99 98 98 98 99 98 95 100 100 99 100 100 100 100 98 99 96 99 99 99 99 100 94 37 20 18 18 15 10 7 5 3 4 5
100 93 85 93 96 100 99 99 97 96 98 99 100 100 100 100 100 100 100 99 99 99 99 94 98 98 98 99 100 91 35 24 18 19 17 13 9 6 4 3 4 5 6
100 100 91 78 78 77 94 98 99 99 100 100 100 100 100 100 100 99 98 99 96 96 97 96 90 100 99 75 32 26 19 19 18 16 11 8 6 4 4 4 5 5 7
98 99 100 100 98 100 99 100 94 88 98 98 98 99 98 98 99 98 98 91 89 96 99 99 84 42 31 24 19 20 19 18 14 10 7 6 4 4 4 5 6 7 9
96 95 98 99 98 98 99 98 99 98 100 97 93 93 92 90 88 92 95 97 98 92 57 35 28 22 20 20 20 18 15 12 9 7 6 5 4 5 6 7 8 11 16
93 88 90 84 80 85 96 87 84 91 95 97 99 100 100 96 90 86 68 48 34 29 24 20 21 21 20 19 16 13 11 9 8 7 6 5 5 6 8 9 12 17 50
83 84 89 86 81 83 92 99 99 99 100 98 94 82 65 53 39 31 29 24 21 21 21 20 20 20 18 15 13 11 8 8 7 6 6 7 8 9 10 13 18 53 53
98 95 93 83 94 99 98 96 92 89 80 65 49 35 30 28 24 21 22 22 21 22 22 21 19 16 14 13 10 8 8 8 7 7 8 9 11 12 15 20 59 62 58
93 94 98 100 87 97 92 86 71 58 37 30 29 24 22 22 23 23 23 23 23 23 21 18 16 13 11 9 9 8 8 8 9 10 12 13 13 16 22 63 67 67 66

GFSMW_700_rhum_021.txt.gz
RH
19 23 25 22 22 27 33 55 68 69 75 71 67 57 46 54 50 49 51 57 54 59 59 61 64 63 65 65 69 66 62 59 61 58 47 43 46 48 47 47 46 44 44
24 26 32 37 32 21 20 34 49 63 68 73 78 75 70 60 58 58 57 59 55 59 57 56 61 63 62 62 70 69 65 62 67 60 49 47 50 51 50 49 47 46 48
15 15 14 17 26 34 32 30 36 39 50 65 72 74 76 69 61 60 52 52 59 60 58 54 54 57 58 68 75 73 69 68 74 61 52 52 53 54 55 53 52 51 52
18 15 14 12 14 17 25 30 44 49 47 49 47 56 68 73 63 56 66 61 62 67 65 60 59 57 58 75 83 75 75 73 83 69 55 55 58 59 59 58 56 57 59
17 16 18 16 16 18 21 25 29 45 59 60 64 61 67 73 75 74 74 73 71 73 73 70 66 61 62 89 88 86 81 91 85 90 62 57 60 63 65 63 62 62 65
24 23 21 21 20 21 21 21 21 24 50 57 64 66 65 70 73 77 76 75 76 78 74 71 72 68 67 84 100 100 92 99 92 90 85 65 60 63 67 66 65 66 66
30 31 30 28 28 27 27 26 24 22 24 29 50 68 68 67 69 73 84 80 84 78 76 71 71 70 69 73 100 98 100 92 98 98 92 84 64 64 67 67 66 65 64
33 35 34 33 34 34 33 32 32 31 28 23 30 50 64 69 69 70 78 88 90 83 80 78 69 76 72 80 100 99 100 100 99 100 100 92 69 68 68 68 67 66 66
37 38 36 36 36 38 38 36 32 35 40 39 34 38 52 63 66 68 75 84 96 96 85 81 74 81 78 86 97 86 100 97 100 96 99 97 79 72 71 71 70 70 68
44 42 42 39 38 42 44 42 42 40 43 42 41 42 40 41 49 60 67 76 86 91 90 85 80 86 80 82 94 90 100 99 99 100 100 97 76 71 75 75 75 69 73
79 77 73 57 47 49 54 54 56 49 44 46 44 38 35 32 35 34 55 71 73 77 93 90 95 94 84 87 93 94 100 100 100 100 100 90 74 76 77 78 76 79 79
77 68 72 68 66 64 62 60 54 49 48 49 48 37 30 26 31 30 37 57 68 74 88 93 86 83 86 90 94 100 96 100 100 100 100 94 88 78 86 85 91 85 86
91 91 76 67 78 77 76 62 64 58 54 52 50 41 37 26 33 45 50 59 70 95 99 96 83 95 98 93 95 100 99 99 98 100 98 96 80 93 97 98 92 88 30
91 94 95 74 86 85 80 73 70 65 60 54 49 38 36 29 50 55 63 71 72 97 100 93 92 99 96 100 100 100 100 100 100 99 94 87 92 99 99 98 78 22 19
100 97 98 92 73 76 77 75 73 70 65 58 45 34 31 37 58 64 82 86 84 95 100 81 84 90 99 100 100 99 99 99 100 96 91 94 98 98 96 42 19 20 18
99 100 100 77 80 89 85 81 75 73 68 57 45 40 50 53 66 74 90 99 99 96 100 89 98 99 100 100 100 100 99 98 97 96 98 98 98 76 23 18 19 16 12
98 98 100 100 100 100 100 97 95 97 92 61 50 48 66 80 75 81 94 100 100 100 98 83 100 100 100 100 99 99 98 97 95 99 96 88 30 19 19 17 15 10 8
93 99 95 94 96 98 98 96 99 100 100 99 68 77 77 82 80 99 99 100 100 100 99 100 100 99 99 98 98 99 92 91 93 88 32 22 19 18 17 13 10 7 5
100 100 99 95 96 98 98 98 100 100 100 83 67 85 98 99 99 94 99 98 99 100 100 99 98 98 98 99 99 95 95 86 36 24 19 19 18 16 11 9 7 5 5
87 98 99 100 100 100 99 98 99 100 99 98 98 98 99 99 99 100 99 100 100 99 98 98 96 96 98 95 84 48 28 22 20 20 18 16 13 11 8 7 6 5 5
91 94 94 96 99 98 98 100 98 98 99 98 98 99 99 100 99 100 98 98 98 96 99 94 89 71 41 28 23 21 22 21 19 18 14 12 10 8 7 6 6 6 6
87 82 83 88 88 94 98 96 96 99 100 99 98 97 98 98 98 98 95 95 89 69 46 32 26 22 22 22 22 22 22 20 16 14 11 9 8 8 7 6 7 8 9
85 79 82 80 76 81 88 95 94 98 97 98 100 100 96 89 79 58 42 33 28 24 22 23 24 24 24 24 21 18 16 14 12 10 9 9 8 8 7 8 10 11 14
79 84 88 86 91 83 90 96 99 99 94 84 68 55 44 32 27 25 22 23 26 27 27 26 25 22 19 17 15 13 12 10 10 9 9 9 9 10 12 13 13 16 35
90 93 82 92 100 96 90 87 78 67 56 39 31 29 24 22 24 26 27 27 27 26 24 21 19 17 15 13 11 10 9 9 9 10 11 12 14 15 14 15 21 51 65
89 93 97 89 94 92 78 67 51 32 30 26 22 24 27 28 27 28 28 27 25 21 19 17 15 13 11 9 7 8 10 12 14 15 16 17 16 14 16 28 71 70 73

GFSMW_700_rhum_027.txt.gz
RH
19 22 20 20 25 41 50 52 52 55 56 56 54 50 46 44 42 43 50 59 59 51 50 53 55 58 59 65 65 61 60 63 66 66 59 59 58 56 51 44 46 48 49
22 23 23 24 24 22 22 25 26 27 37 51 56 56 60 59 58 57 57 59 58 62 60 54 56 61 63 63 62 64 68 68 68 62 62 63 62 58 55 48 47 50 51
28 24 25 28 30 31 32 31 28 30 31 30 34 44 54 60 68 62 60 59 50 59 67 64 64 67 69 66 72 70 69 68 67 63 66 69 66 64 60 54 50 51 54
17 19 21 19 19 20 24 25 21 25 34 42 42 37 35 39 44 50 65 72 73 70 69 64 70 74 72 70 72 71 65 64 62 70 73 76 73 72 70 64 58 55 55
25 26 28 26 23 23 21 18 15 16 26 44 55 59 57 50 44 44 52 61 68 70 71 67 62 64 72 72 73 72 68 64 60 70 85 87 84 84 83 76 71 63 57
31 29 26 25 24 24 23 23 21 21 29 41 52 55 54 51 52 54 60 59 61 62 66 71 70 63 83 80 80 84 81 76 72 98 83 92 94 91 86 88 87 80 76
29 28 27 28 28 28 28 28 27 25 23 24 27 29 32 36 38 42 51 66 68 64 61 64 76 69 70 84 94 96 94 93 91 94 88 100 96 97 99 96 99 95 96
37 36 34 33 33 32 31 32 32 33 33 30 30 30 32 33 35 34 33 45 66 68 72 75 76 79 81 83 88 94 94 96 98 93 90 94 100 98 99 100 99 97 100
43 45 45 42 41 39 36 34 36 38 37 35 33 33 33 34 38 40 36 32 34 53 68 75 77 78 80 86 95 99 99 93 92 98 98 95 100 99 100 97 100 99 92
53 50 47 44 47 47 46 45 47 52 47 40 39 39 38 39 44 46 49 46 50 64 70 76 78 77 77 83 96 99 98 98 94 97 99 100 99 96 100 100 99 100 99
50 39 30 23 22 22 24 36 44 48 60 59 49 47 45 43 44 46 47 48 48 46 53 69 75 75 70 78 86 94 100 100 100 100 99 100 98 98 99 100 99 100 99
46 29 25 23 24 25 29 34 46 47 49 69 70 61 60 59 56 53 50 48 44 41 42 40 57 71 73 82 91 99 100 100 100 92 100 100 100 99 100 99 99 99 100
44 29 33 31 30 33 35 38 43 48 45 52 68 74 69 64 58 54 52 48 44 40 34 38 37 51 77 83 95 97 99 100 100 93 100 99 100 99 100 99 100 99 98
58 46 45 49 36 30 32 37 40 47 46 55 72 82 79 76 66 59 55 54 47 37 34 30 37 39 55 75 81 93 96 99 94 99 100 100 100 100 99 99 98 97 97
58 43 46 50 52 50 45 53 60 64 66 75 81 78 91 76 74 65 57 54 42 40 35 33 44 44 63 83 92 89 96 98 100 100 100 100 98 98 98 98 96 96 97
66 46 47 57 62 60 66 68 77 81 83 81 76 100 98 76 69 62 51 51 45 46 50 61 63 61 71 90 97 100 100 99 99 99 99 99 100 99 99 97 97 97 92
72 66 66 76 60 64 74 82 88 87 83 55 94 93 84 74 62 65 61 59 63 66 71 78 84 90 81 97 99 99 100 100 100 98 99 100 98 98 97 95 48 21 20
69 65 64 70 71 69 73 79 82 90 65 64 90 93 84 69 66 70 76 75 73 79 83 99 100 100 99 99 100 99 99 98 94 95 98 96 98 82 40 23 22 20 17
71 74 70 70 65 70 80 78 85 86 82 63 65 64 65 67 80 87 99 98 98 99 99 97 99 98 99 98 99 98 97 100 98 95 82 32 23 23 22 20 18 15 12
67 70 77 74 74 73 71 73 78 84 94 99 86 81 85 93 100 100 90 86 97 98 98 97 98 97 97 98 99 99 87 62 32 24 24 23 21 19 16 15 12 10 9
68 67 70 76 72 71 72 78 78 80 80 89 91 88 88 95 97 98 97 97 97 97 97 97 97 95 80 62 32 25 25 25 24 22 19 17 14 10 7 6 7 7 8
75 71 73 73 69 69 70 76 76 76 83 88 89 91 94 96 96 96 95 90 80 51 42 29 25 25 25 25 24 22 21 18 16 11 7 4 3 3 4 5 6 7 7
87 79 76 70 70 74 70 66 60 55 48 40 35 31 29 27 26 25 25 25 25 26 26 26 24 23 22 18 13 9 6 4 3 3 2 2 3 4 4 4 5 6 10
97 92 82 78 75 76 66 50 36 29 27 25 24 25 27 28 28 28 28 27 26 24 23 21 17 12 8 5 4 3 3 2 2 2 3 3 3 4 5 8 14 22 30
96 97 92 88 83 78 67 38 28 26 23 25 29 30 30 30 29 28 27 25 24 21 16 10 6 4 3 3 2 2 2 2 2 3 3 4 6 9 14 20 26 33 38
100 99 99 98 88 83 68 30 28 24 25 30 32 32 32 31 30 28 27 25 20 14 9 5 4 2 2 2 2 2 2 2 3 4 5 8 12 17 24 31 34 38 42